Location: Newark
(55.7083°N, 13.1992°E)
Time: 18:50:30
(UTC+00:00)

N. Korean satellite - Pass Details

Date: 27 January 2020
Orbit: 456 x 506 km, 97.2° (Epoch: 17 February)

Event Time Altitude Azimuth Distance (km) Brightness Sun altitude
Rises 17:05:31 0° 209° (SSW) 2,468 10.8 -13.2°
Reaches altitude 10° 17:08:13 10° 233° (SW) 1,603 10.3 -13.6°
Maximum altitude 17:10:19 15° 271° (W) 1,319 9.9 -13.8°
Drops below altitude 10° 17:12:26 10° 309° (NW) 1,619 9.8 -14.1°
Sets 17:15:11 0° 333° (NNW) 2,509 10.4 -14.5°
